Simultaneous Nadir Overpasses (SNOs) Predictions

Prediction of SNOs between LANDSAT-8 and METOP-B Satellite Orbit:

Table of predicted SNOs for the next 14.0 days since TLE Epoch: 1/23/2021
Index Date (LANDSAT-8) Time (LANDSAT-8) Lat,Lon (LANDSAT-8) SZA (LANDSAT-8 ) Date (METOP-B) Time (METOP-B) Lat,Lon (METOP-B) SZA (METOP-B ) Distance(km) Time Diff (sec)
1 01/25/2021 06:05:02 -81.13, -51.42 78.33 01/25/2021 06:04:21 -81.12, -51.46 78.35 0.90 41
2 01/25/2021 06:54:28 81.13, 116.31 101.68 01/25/2021 06:55:00 81.14, 116.45 101.71 2.46 32
3 01/28/2021 01:39:18 -81.11, 14.70 79.11 01/28/2021 01:38:44 -81.11, 14.56 79.13 2.35 34
4 01/28/2021 02:28:43 81.14,-177.23 100.95 01/28/2021 02:29:22 81.14,-177.21 100.97 0.49 39
5 01/30/2021 21:13:32 -81.13, 81.51 79.83 01/30/2021 21:13:04 -81.13, 81.70 79.82 3.32 28
6 01/30/2021 22:02:58 81.13,-110.80 100.18 01/30/2021 22:03:44 81.14,-110.87 100.19 1.15 46
7 02/02/2021 16:47:46 -81.13, 147.92 80.64 02/02/2021 16:47:25 -81.13, 148.09 80.63 2.91 21
8 02/02/2021 17:37:12 81.13, -44.41 99.36 02/02/2021 17:38:05 81.13, -44.52 99.37 1.99 53
9 02/05/2021 12:22:01 -81.13,-145.69 81.49 02/05/2021 12:21:47 -81.13,-145.51 81.48 3.09 14



Historial Predications of SNOs between LANDSAT-8 and METOP-B
